Simultaneous Nadir Overpasses (SNOs) Predictions

Prediction of SNOs between GOES-16 and METOP-B Satellite Orbit:

Table of predicted SNOs for the next 14.0 days since TLE Epoch: 11/13/2020
Index Date Time (GOES-16) GOES-16 Lat,Lon METOP-B Lat,Lon Distance(km) Time Diff (sec)
1 11/15/2020 02:33:10 0.04, -75.14 -0.16, -76.05 104.24 80
2 11/16/2020 02:15:11 0.04, -75.12 0.93, -71.06 462.47 80
3 11/17/2020 14:31:23 -0.03, -75.11 0.11, -75.61 57.83 80
4 11/20/2020 02:29:44 0.02, -75.03 -0.04, -75.21 20.35 80
5 11/22/2020 14:30:38 -0.02, -75.03 -0.07, -74.78 28.44 80
6 11/24/2020 02:49:38 0.01, -74.98 -0.95, -79.37 499.68 80
7 11/25/2020 02:26:18 0.01, -74.98 0.15, -74.37 68.59 80
8 11/26/2020 14:45:11 -0.01, -75.00 0.89, -78.93 449.20 80
